Location: Deuil
(48.9767°N, 2.3272°E)
Time: 02:24:45
(UTC+00:00)

Cosmos 2360 Rocket - Pass Details

Date: 30 May 2022
Orbit: 832 x 846 km, 71.0° (Epoch: 03 July)

Event Time Altitude Azimuth Distance (km) Brightness Sun altitude
Exits shadow 20:35:25 - 150° (SSE) 2,635 4.1 -7.2°
Reaches altitude 10° 20:36:07 10° 145° (SE) 2,445 3.9 -7.3°
Maximum altitude 20:40:03 20° 100° (E) 1,851 3.5 -7.7°
Drops below altitude 10° 20:44:01 10° 55° (NE) 2,464 4.6 -8.1°
Sets 20:47:04 0° 39° (NE) 3,407 5.5 -8.5°
